GFSSE_con_sbcape_093.txt.gz
CAPE
1218 1212 1564 1765 1733 1609 1534 1497 1490 1593 1695 1860 1923 1941 1988 2023 2036 2011 2067 2223 2353 2495 2450 2196 2152 1975 1655 1652 1819 1744 1561 1256 1263 1439 1582 1670 1331 1266 1479 1287 1094 981 1381
1250 1300 1433 1754 1874 1838 1700 1564 1564 1732 1873 2015 2066 2090 2087 2062 2099 2100 2089 2272 2431 2594 2200 1947 2040 1805 1661 1620 1668 1595 1579 1387 1276 1251 1259 1340 1606 1328 1158 1258 1148 1150 1362
1253 1432 1477 1647 1882 1998 1954 1755 1748 1951 2079 2151 2200 2192 2193 2188 2219 2136 2082 2243 2516 2620 2238 1917 1805 1597 1639 1692 1548 1454 1406 1259 1166 1266 1233 773 1014 1502 1206 1334 1254 1266 1303
1223 1288 1417 1604 1794 1889 1949 1964 1865 2111 2221 2249 2292 2315 2273 2314 2307 2205 2098 2166 2383 2450 2196 1991 1911 1764 1692 1527 1406 1437 1355 1254 1187 1075 761 806 1069 1372 1259 1160 1091 1212 1322
935 1214 1400 1507 1733 1785 1782 1907 1999 2108 2164 2224 2265 2428 2357 2389 2338 2251 1980 2166 2451 2244 1813 1684 1829 1939 1602 1362 1303 1333 1306 1126 931 707 532 699 889 1255 1310 1171 1211 1320 973
965 1337 1224 1384 1622 1781 1796 1844 1970 2102 2078 2102 2215 2424 2430 2382 2362 2121 1884 2246 2150 1499 1180 1518 1795 1650 1314 1220 1210 1234 1086 869 319 418 623 875 780 1096 1262 1119 1185 1091 990
1377 1036 1082 1343 1627 1772 1879 1939 1997 2159 2129 2073 2157 2276 2365 2331 2194 1930 1768 1722 1443 1209 1473 1565 1527 1265 1090 1088 1048 931 736 537 197 375 338 538 706 1182 1052 1089 1172 1055 940
1502 1006 1092 1407 1631 1691 1736 1834 1946 2106 2111 1558 1994 2146 2362 2009 1777 1782 1695 1336 1155 979 1100 989 1009 1021 882 885 765 459 454 465 309 344 433 515 927 1077 1014 958 1024 904 782
1888 1094 1021 1329 1562 1490 1531 1608 1803 1903 1564 1431 1925 2078 2271 1949 1582 1560 1531 1186 996 732 703 611 640 611 799 746 564 242 130 318 218 319 470 584 786 1050 922 743 660 517 473
2044 1398 1045 1071 1161 1060 1034 1445 1629 1645 1367 1467 1911 2080 2076 1823 1565 1319 1189 1102 929 692 667 696 577 442 667 491 326 65 131 211 186 273 191 428 726 810 827 710 383 164 175
2464 1896 1470 1270 1124 974 879 1129 1483 1623 1609 1537 1431 1600 1485 1250 1224 1100 776 997 835 515 561 637 595 631 584 416 239 92 70 96 174 201 167 453 726 781 604 321 94 36 61
2174 2419 1982 1624 1514 1315 1377 989 965 1398 1198 1107 1215 957 846 934 747 676 671 741 603 444 426 632 616 379 330 287 167 115 12 23 36 8 133 302 775 582 412 129 85 52 23
2298 2602 2127 2043 1843 1637 1402 855 1006 987 1031 1125 1160 820 889 881 728 442 437 556 460 520 397 348 294 219 213 129 140 71 35 9 26 18 79 277 591 366 232 60 56 50 27
2136 2492 2235 1861 1840 1573 1156 1276 1090 1203 970 1063 1047 1018 676 830 672 543 357 141 87 199 180 164 152 99 173 231 193 119 32 5 0 14 43 82 154 140 13 18 31 31 23
1800 2180 2363 1809 1655 1688 1469 1412 1323 1453 1282 1250 1198 1139 777 802 767 749 333 236 106 99 64 91 105 99 74 205 229 156 18 0 0 3 13 31 13 12 9 20 17 16 21
1 2019 2414 2009 1554 1777 1735 1298 1233 1624 1433 1280 1264 1093 897 753 701 674 477 348 176 83 59 37 86 57 22 160 131 98 20 13 0 0 0 2 1 2 15 29 21 13 18
0 853 2275 2173 1926 1953 1861 1260 1194 1155 1250 1213 1285 1125 1007 833 755 593 389 243 220 131 4 8 14 5 13 87 62 63 35 4 0 0 6 0 0 0 4 30 35 21 18
0 0 1978 2340 2043 1950 1608 1182 954 854 1007 1052 937 949 900 887 761 608 352 140 279 65 0 0 3 3 1 11 24 66 59 5 0 0 0 0 0 0 4 19 30 40 47
0 0 1867 2253 1876 1774 1291 974 805 911 931 795 753 682 799 788 715 516 314 200 202 86 0 0 1 2 6 33 71 80 9 4 0 0 0 0 0 0 0 10 17 24 45
0 0 1726 1903 1840 1843 1409 990 826 691 671 598 647 500 724 748 566 355 216 130 123 84 4 0 0 0 4 37 138 92 2 0 1 0 0 0 0 0 0 9 19 9 11
0 0 1675 1915 1769 1740 1496 1389 1030 871 671 494 521 721 598 581 383 228 157 91 124 45 0 0 1 8 19 30 16 0 4 0 0 0 0 0 0 0 0 0 2 0 0
0 0 1702 1914 1935 1897 1662 1419 1040 571 262 315 441 588 506 428 231 128 170 165 76 2 3 19 16 14 12 46 14 6 0 0 0 0 0 0 0 0 0 0 0 0 0
0 17 1851 1940 1982 1732 1317 591 321 185 177 161 214 315 373 516 167 109 110 122 111 91 46 33 15 4 5 18 7 0 1 0 5 2 0 3 0 0 0 0 0 0 0
0 1235 1834 1831 1786 1443 1000 975 470 495 352 246 194 203 249 283 255 95 99 59 50 25 51 56 6 0 1 2 22 45 0 0 0 1 7 4 1 7 0 0 0 0 0
22 1977 1914 1691 1679 1445 948 678 367 246 122 151 170 161 188 90 114 102 64 3 40 27 58 114 34 0 0 1 1 20 2 0 2 0 0 0 3 0 0 0 0 0 0
0 1310 1853 1594 1615 1405 876 639 485 313 165 200 160 114 130 203 138 67 84 49 4 13 37 44 68 10 1 1 5 1 1 0 0 0 0 0 0 0 0 0 0 0 0

GFSSE_con_sbcape_096.txt.gz
CAPE
953 1279 1507 1599 1696 1659 1530 1437 1452 1500 1642 1727 1731 1910 2071 2088 2023 2030 2152 2232 1967 2253 2487 1965 2069 2059 1623 1745 1989 1775 1613 1438 1334 1170 1697 1578 1457 1409 1344 1521 1414 1303 1653
1015 1405 1595 1619 1729 1781 1692 1561 1569 1687 1901 1940 1887 1952 2058 2099 2072 2155 2265 2398 2397 2541 2162 1802 1922 1907 1608 1702 1660 1652 1548 1323 1364 1435 1529 1562 1574 1439 1282 1396 1396 1418 1562
1148 1385 1625 1681 1753 1816 1837 1774 1818 1965 2100 2092 2048 2046 2121 2203 2141 2156 2266 2404 2502 2495 2054 1828 1791 1722 1629 1703 1540 1549 1545 1489 1456 1550 1578 1125 1246 1399 1349 1466 1509 1560 1493
1292 1374 1564 1750 1848 1870 1830 1829 1931 2144 2187 2223 2201 2210 2237 2263 2208 2146 2197 2346 2511 2553 2128 1818 1624 1737 1691 1587 1560 1517 1486 1365 1220 1144 734 933 1271 1377 1354 1306 1355 1287 1305
1358 1401 1517 1709 1904 2009 1871 1812 1939 2121 2152 2183 2221 2350 2399 2397 2327 2225 2137 2290 2612 2353 2208 1740 1799 1696 1582 1311 1277 1344 1344 1132 971 725 540 687 1130 1369 1382 1351 1261 1277 1213
1252 1296 1451 1577 1738 1954 2036 1956 1950 1991 1979 1994 2169 2380 2498 2493 2456 2121 2023 2069 2387 2154 1990 1990 1633 1613 1216 1101 1154 1244 1052 784 529 429 568 1004 910 1402 1433 1231 1226 1212 1202
1102 1100 1216 1476 1662 1852 2013 2030 1999 1974 1910 1943 2136 2275 2384 2481 2393 2120 1945 2086 2083 1887 1869 2061 1755 1344 1127 1041 1068 1037 619 420 337 419 553 611 812 1281 1255 1059 1152 1243 1159
1088 969 1100 1406 1612 1785 1885 1791 1867 1986 1913 1959 2072 2147 2308 2260 2146 1940 1861 1785 1675 1530 1525 1612 1405 1247 1110 1055 847 573 322 379 288 184 451 518 1034 1240 1140 1041 1072 1083 982
1057 992 1061 1334 1566 1604 1686 1712 1825 1976 2021 1695 1873 2006 2160 1943 1741 1747 1741 1566 1434 1375 1239 1310 1216 1105 1065 958 550 234 268 277 186 251 356 570 1144 1187 1070 942 924 782 695
988 939 962 1100 1193 1164 1256 1603 1740 1938 1574 1337 1553 1665 2034 1839 1530 1538 1443 1312 1170 1093 1036 1046 927 828 884 703 258 151 180 185 123 134 291 401 1073 1154 1075 903 780 586 376
1309 1024 946 989 930 801 914 1325 1582 1427 1303 1215 1358 1686 1852 1540 1449 1306 1015 1094 883 676 832 785 686 514 690 499 260 149 216 149 91 81 235 650 937 932 870 807 723 415 181
1677 1283 1062 983 932 749 1070 1148 1157 1389 1252 1137 1248 1436 1194 1155 984 785 796 892 339 355 546 636 560 478 511 322 168 139 142 144 100 65 226 565 829 784 854 597 364 171 191
1987 1722 1419 1107 954 876 1105 809 997 1099 919 965 999 905 748 696 579 434 519 625 267 392 354 634 661 515 385 306 163 86 104 152 58 40 157 365 780 944 768 533 292 219 127
2055 2117 1871 1545 1273 1185 1065 746 808 851 828 971 890 624 566 611 302 243 349 163 240 274 177 401 263 285 346 283 163 56 48 117 48 46 84 361 681 818 656 509 342 225 83
1889 2398 2150 1931 1670 1443 1297 896 782 865 851 883 747 611 507 683 421 247 187 87 74 133 172 108 56 106 210 250 167 76 43 73 57 32 54 112 333 440 393 327 319 226 72
1560 2330 2239 2091 2027 1727 1276 1245 964 1053 881 741 791 776 454 681 480 386 296 217 167 140 123 51 55 31 39 173 160 82 33 16 39 2 3 12 72 93 141 108 88 52 42
0 1974 2313 1995 1908 1804 1545 1318 998 1247 1035 913 882 628 461 540 483 478 366 401 247 138 30 7 20 11 11 131 73 72 33 13 6 0 0 0 1 0 0 33 61 40 32
0 688 2246 2191 1627 1708 1573 1261 1094 1233 1181 966 778 600 485 435 420 345 367 319 346 246 99 44 19 17 3 22 26 25 33 9 4 0 0 0 0 0 0 8 31 36 42
0 0 2074 2186 1799 1723 1389 1284 1102 1069 1096 831 572 527 468 461 378 325 274 236 356 295 173 80 24 8 3 1 4 15 20 13 0 3 0 0 0 0 0 2 17 18 35
0 0 1522 2142 1936 1863 1290 1008 824 792 764 538 545 430 391 426 439 336 158 158 267 119 27 29 7 0 0 0 22 65 28 1 0 0 0 0 0 0 0 0 1 10 18
0 0 1295 2046 1902 1598 1297 909 665 807 520 362 307 339 297 372 303 267 161 101 144 135 35 0 0 0 1 1 6 52 1 0 0 0 0 0 0 0 0 0 0 1 11
0 0 321 1850 1759 1616 1495 1427 1012 814 541 415 295 326 239 238 267 388 183 140 141 160 43 1 0 1 6 5 0 0 0 1 0 0 0 0 0 0 0 0 0 0 0
0 0 374 1655 1731 1722 1766 1226 539 14 11 70 243 402 322 265 205 200 153 106 73 56 0 1 0 6 12 15 0 0 1 3 0 0 0 0 0 0 0 0 0 0 0
0 0 66 1594 1719 1717 1520 1072 614 773 627 255 260 63 199 378 280 83 67 78 108 50 16 0 6 7 18 25 7 0 0 0 0 0 0 0 0 0 0 0 0 0 0
0 0 1146 1673 1795 1647 1067 1064 726 657 192 36 11 12 61 229 298 182 86 66 58 22 6 13 1 0 12 25 11 0 0 0 0 0 1 0 0 0 0 0 0 0 0
0 0 1054 1832 1876 1343 1085 691 686 174 46 56 29 22 39 32 88 106 64 71 30 23 2 31 10 0 1 8 7 2 0 0 0 0 0 3 0 0 0 0 0 0 0

GFSSE_con_sbcape_102.txt.gz
CAPE
676 1172 1473 1672 1697 1548 1386 1388 1411 1493 1773 2083 2235 2307 2026 1990 1986 1940 2054 2127 2338 2497 2371 1933 1995 2051 2010 1916 2198 1943 1781 1794 1659 1743 1964 1940 1660 1528 1465 1732 1605 1341 1726
778 1286 1468 1715 1806 1685 1523 1440 1512 1628 1849 2116 2212 2308 2248 2161 2084 2048 2114 2170 2432 2601 2204 1868 1899 1948 1650 1884 1680 1679 1688 1496 1551 1781 1992 1814 1565 1618 1656 1703 1474 1505 1544
1144 1367 1509 1609 1893 1808 1716 1632 1744 1896 1999 2066 2156 2209 2291 2254 2231 2145 2132 2208 2561 2371 1998 1839 1922 1992 1821 1689 1535 1643 1564 1570 1671 1709 1912 1173 1376 1648 1504 1690 1643 1493 1466
1299 1375 1541 1748 1942 1865 1729 1748 1855 2046 2094 2105 2115 2180 2250 2294 2291 2203 2156 2359 2521 2477 2145 1895 1946 1918 1923 1546 1439 1540 1619 1620 1587 1619 1004 1182 1254 1598 1494 1424 1489 1514 1495
1375 1412 1566 1837 1928 1902 1845 1879 1947 1983 1945 2017 2065 2210 2267 2361 2428 2361 2239 2381 2505 2561 2407 1982 2021 2105 1527 1303 1358 1466 1538 1481 1310 969 900 807 1225 1446 1371 1521 1566 1531 1548
1448 1519 1616 1776 1907 1958 1980 2016 2036 1878 1767 1819 2008 2236 2348 2459 2538 2364 2174 2421 2635 2660 2582 2425 2324 1767 1267 1226 1280 1292 1185 1031 653 718 822 1062 1141 1450 1466 1339 1526 1464 1429
1451 1474 1549 1655 1861 2002 2124 2121 2027 1823 1675 1759 1967 2141 2257 2399 2493 2239 2061 2323 2265 2526 2499 2388 1943 1396 1195 1190 1225 1077 880 634 506 542 662 665 844 1604 1466 1434 1406 1495 1411
1352 1373 1550 1677 1795 1946 2034 2007 1947 1801 1693 1721 1865 2037 2240 2240 2179 2090 2026 2200 2181 2263 2181 1974 1433 1242 1199 1217 1065 859 620 617 503 481 463 406 1057 1364 1392 1361 1258 1270 1237
1057 1302 1468 1672 1832 1775 1809 1830 1843 1780 1755 1731 1750 1878 2049 2013 1905 1956 1981 1995 1820 1682 1686 1521 1237 1148 1220 1192 784 581 529 563 376 441 388 369 1227 1543 1349 1328 1189 1274 1240
701 1028 1179 1416 1555 1499 1581 1584 1666 1740 1759 1740 1721 1738 1828 1819 1783 1756 1778 1784 1581 1453 1587 1403 1170 1133 1153 1050 588 392 467 406 271 270 275 364 1060 1291 1414 1125 1143 1240 1152
598 604 934 1032 1206 1276 1081 1369 1548 1687 1741 1746 1738 1702 1613 1407 1534 1553 1475 1520 1340 1192 1433 1342 1130 1047 1055 809 462 365 400 240 197 231 205 397 964 1421 1246 1170 1146 1067 940
621 493 691 721 837 662 1073 1225 1439 1649 1730 1583 1546 1354 1252 1162 1029 1140 1126 1247 1125 917 1109 1222 1007 791 710 346 337 428 254 222 187 173 191 387 1037 1281 1277 1062 1108 922 818
783 537 546 573 588 797 1136 1218 1139 1127 1128 921 1066 971 1079 965 840 765 743 789 646 630 532 705 384 320 371 217 181 273 269 261 198 201 242 575 977 1265 1198 932 816 661 477
1401 1036 683 622 603 794 1037 1117 1070 1171 1349 898 1099 1091 1044 1174 760 506 636 440 202 131 106 21 37 41 117 106 97 185 233 200 144 154 290 504 798 1268 1112 1087 802 603 480
1455 1519 1132 708 709 757 841 966 989 1172 1207 1290 1005 995 1236 1432 1018 584 460 473 111 0 0 0 0 52 122 136 104 186 268 171 98 85 133 297 494 743 1280 1030 810 659 485
73 1330 1421 1014 757 708 872 877 914 1068 929 814 815 883 1125 1221 935 536 479 506 101 0 0 0 0 8 96 215 181 143 164 35 47 69 51 93 86 373 595 920 818 680 535
0 21 1433 1423 988 771 878 717 698 819 761 640 749 843 980 1107 763 515 426 290 157 0 0 0 1 0 29 82 136 86 68 32 59 47 44 60 41 114 241 468 561 660 492
0 0 358 1714 1437 1010 957 823 626 613 595 535 721 623 523 788 406 258 416 300 58 17 8 1 2 29 0 11 44 70 47 26 42 59 56 43 12 79 129 320 377 350 351
0 0 0 988 1782 1476 1241 1052 746 602 568 513 542 620 491 569 401 454 590 340 41 75 50 16 46 61 1 5 0 63 49 26 41 57 57 32 2 0 10 25 98 168 158
0 0 0 2 1632 1870 1743 1406 1003 829 759 630 664 677 506 457 376 411 492 333 179 126 83 81 99 40 16 4 50 38 21 25 32 39 34 26 2 0 0 1 0 1 21
0 0 0 0 758 1874 2015 1674 1395 1212 1147 1018 787 609 456 451 355 441 338 251 166 171 156 178 169 118 32 2 2 2 1 6 2 16 26 9 1 0 0 0 0 0 5
0 0 0 0 143 1806 1838 1866 1769 1594 1478 1269 974 683 467 489 388 430 282 229 190 268 158 187 137 108 54 3 0 0 0 0 3 23 20 20 0 0 0 0 0 0 0
0 0 0 0 2 1543 1758 1916 872 1141 932 1076 1045 883 722 581 438 450 240 231 222 192 119 114 91 58 58 2 0 0 0 1 0 1 9 11 1 0 0 0 0 0 0
0 0 0 0 0 873 1662 1761 1461 1434 1306 1043 1043 927 906 623 466 418 189 210 187 141 91 61 57 25 1 9 0 0 0 0 0 1 1 0 1 0 0 0 0 0 0
0 0 0 0 0 0 1663 1665 1531 1332 1202 980 1072 848 643 466 391 288 151 91 130 92 82 52 17 2 10 2 1 0 0 0 0 0 4 2 1 1 0 0 0 0 0
0 0 0 0 0 0 1617 1694 1454 1318 1143 826 901 778 539 379 198 117 80 35 77 94 40 18 8 1 0 0 0 0 0 0 0 0 0 1 0 1 0 0 0 0 0

GFSSE_con_sbcape_105.txt.gz
CAPE
828 1648 1567 1731 1664 1517 1462 1417 1617 1883 2110 2219 2026 1891 1838 1966 1949 1897 2076 2308 2456 2497 2402 2037 1897 2312 1852 1996 2281 2115 1887 1785 1806 1764 1597 2003 1692 1460 1489 1767 1515 1328 1758
1034 1712 1547 1752 1751 1658 1612 1471 1593 1972 2290 2419 2199 2045 1997 2044 2038 2031 2137 2313 2402 2544 2340 1908 1955 2232 2220 2302 2003 1744 1719 1645 1604 1529 1834 1959 1723 1557 1605 1584 1441 1452 1779
1415 1810 1828 1749 1784 1777 1714 1679 1730 2120 2406 2491 2417 2206 2136 2136 2111 2119 2142 2325 2533 2598 2300 1990 1936 1889 1944 1846 1612 1645 1611 1574 1556 1658 1865 1158 1273 1654 1681 1625 1691 1711 1791
1596 1861 1997 1761 1807 1858 1777 1788 1890 2205 2392 2451 2519 2422 2272 2226 2171 2218 2176 2378 2557 2572 2399 2004 2061 2221 1992 1519 1499 1497 1619 1643 1610 1642 1599 1521 1355 1717 1564 1545 1579 1410 1511
1661 1811 1939 1806 1820 1879 1886 1866 1947 2101 2133 2248 2401 2553 2452 2402 2397 2376 2273 2451 2557 2592 2544 2167 2282 2384 1614 1286 1344 1467 1553 1516 1283 1362 1467 1524 1414 1574 1572 1497 1625 1622 1462
1816 1850 1693 1787 1817 1904 1943 2025 2032 1945 1865 1942 2178 2508 2614 2609 2563 2420 2329 2513 2769 2689 2661 2620 2473 1934 1285 1182 1281 1420 1421 1265 1178 1584 1485 1293 1542 1616 1421 1507 1646 1590 1354
1987 2025 2106 1682 1819 1913 2041 2122 2030 1821 1767 1851 2049 2245 2459 2600 2572 2338 2360 2469 2647 2649 2625 2572 2273 1524 1220 1217 1324 1306 1115 953 1577 1566 1488 1419 1479 1672 1478 1610 1685 1535 1466
2048 2131 2239 1780 1822 1922 2002 2017 1853 1715 1733 1839 1973 2100 2353 2471 2392 2185 2253 2350 2371 2424 2371 2125 1701 1369 1272 1264 1231 1026 789 941 1424 1694 1577 1520 1477 1691 1629 1558 1430 1448 1450
1914 2108 2244 2310 2097 1761 1875 1843 1701 1632 1669 1779 1898 2009 2168 2214 2207 2104 2201 2254 2169 2127 2057 1888 1370 1227 1281 1228 1034 790 641 859 1733 1753 1558 1494 1511 1456 1491 1449 1356 1457 1361
1456 1978 1931 1877 1949 2201 2404 1521 1556 1613 1621 1684 1752 1866 1979 1948 1975 2022 2057 2146 2011 1999 1747 1623 1220 1144 1200 1090 773 527 561 534 1633 1630 1596 1579 1288 1680 1451 1406 1342 1433 1311
1140 982 1419 1649 1709 1929 2231 2084 1518 1531 1584 1616 1699 1669 1779 2230 2303 2243 2056 2019 1785 1584 1665 1490 1136 1064 1108 873 504 467 453 1465 1532 1560 1530 870 1120 1611 1364 1398 1423 1275 1238
1299 975 1123 1282 1454 1602 1529 2243 2359 2068 2274 2319 2262 2185 2162 2260 2279 2051 1900 1540 1576 1204 1443 1250 1113 965 1041 1680 1303 502 1504 1578 1484 1513 1589 535 1171 1420 1250 1199 1278 1170 1075
1099 1186 992 839 984 1011 1267 1850 1912 1878 1889 1670 2345 2489 2264 2206 2296 2180 2144 2182 2294 1119 1909 1397 1336 1607 1647 1773 1511 1377 1404 1253 1450 1369 1174 341 945 1293 1104 1088 1092 920 893
1550 1276 1224 756 665 735 1265 1516 1622 1458 1539 1545 2314 2506 2455 1984 2044 2175 2064 2316 2322 1919 1879 1895 1824 1717 1666 1650 1668 1332 834 1055 1283 1343 715 83 343 947 972 815 808 755 641
928 1912 1273 1056 666 582 980 1390 1513 1541 1631 1734 2219 2296 2455 1702 1813 1828 2167 2077 1982 1763 1675 1573 1598 1427 1503 1458 1442 1380 963 1029 795 819 574 76 38 346 797 852 544 894 574
0 262 2029 1440 1055 1140 1105 1354 1370 1456 1557 1884 2210 2131 2148 2146 1730 1602 1429 1675 1698 1599 1438 1393 1372 1335 1275 1217 1236 1031 1096 846 600 218 131 133 65 9 505 873 862 845 611
0 0 130 1642 1473 1467 1453 1567 1659 1500 1667 1364 1426 1442 1332 1415 1475 1352 1272 1399 1230 1171 1221 1088 1007 899 1074 819 740 969 1067 908 659 164 86 69 53 40 1 346 686 840 675
0 0 0 204 1798 1817 1744 1704 1774 1651 1563 1268 1079 1028 1132 1311 1453 1136 1050 1064 751 587 882 881 510 620 737 665 553 851 961 697 116 92 48 45 49 68 50 161 210 304 432
0 0 0 0 446 1751 1884 1937 1704 1443 1442 1511 1124 1028 1096 1196 1205 935 1057 1044 582 351 520 508 457 563 649 507 579 735 758 439 50 34 64 36 43 57 28 14 108 159 223
0 0 0 0 0 1359 1906 1794 1699 1409 1434 1182 994 1018 1024 960 987 1065 1148 1029 661 425 418 317 263 251 353 447 280 372 367 380 172 58 59 45 49 28 5 1 42 250 73
0 0 0 0 0 0 1163 1801 1405 1105 1353 1160 1068 1326 1041 955 732 941 1219 967 537 610 435 330 245 157 107 144 249 346 215 323 220 62 164 110 110 18 7 7 45 206 131
0 0 0 0 0 0 235 1541 1819 1532 1333 1471 1259 1062 1127 1044 912 1007 1097 832 521 462 447 464 284 239 160 97 80 8 2 6 35 115 89 140 156 83 9 3 11 88 114
0 0 0 0 0 0 7 1361 2070 1520 1482 1401 1355 1148 1105 1370 1170 1119 990 749 441 396 424 551 471 322 147 97 59 2 2 3 3 21 28 112 116 89 60 1 1 46 37
0 0 0 0 1 0 1 614 1615 1346 1295 1444 1645 1426 1223 1042 1055 1125 909 706 556 420 600 513 488 371 215 104 49 15 0 2 30 16 9 11 93 48 25 3 1 14 9
0 0 0 0 1 3 2 9 1476 1623 1725 1931 1976 1986 1609 1159 1157 1012 861 763 813 653 497 390 391 282 185 101 82 25 0 0 0 1 7 7 3 4 4 0 0 2 13
0 0 0 0 0 2 2 3 908 1684 1801 1716 1991 1973 1620 1080 941 948 719 656 632 441 560 619 215 223 124 92 105 100 6 0 0 0 0 7 8 5 4 1 0 0 10

GFSSE_con_sbcape_108.txt.gz
CAPE
1084 2185 1570 1708 1687 1714 1689 1828 1923 1924 1868 1918 1877 1931 1980 2042 2029 2057 2240 2360 2376 2493 2274 2329 2629 2486 1961 1753 2180 2225 2023 1989 1897 1924 1751 1932 1629 1448 1513 1750 1561 1258 1642
1201 2364 1527 1698 1736 1844 1802 1852 1995 2143 2226 2277 2021 2065 2098 2174 2104 2239 2411 2458 2648 2738 2627 2134 2123 2201 2025 2615 2400 2165 1878 1761 1715 1833 2146 1833 1578 1574 1464 1603 1470 1443 1813
1605 2307 1987 1653 1775 1872 1909 1975 2259 2499 2634 2498 2279 2174 2272 2281 2243 2346 2418 2485 2713 2762 2587 2065 2141 2180 2450 2439 1855 1825 1857 1581 1536 1895 2123 1579 1522 1814 1489 1745 1739 1740 1718
1811 2144 2111 1600 1723 1844 1891 1997 2269 2665 2778 2676 2474 2406 2421 2409 2373 2406 2397 2467 2768 2883 2766 2138 2240 2259 2262 1773 1655 1664 1735 1610 1561 1676 1413 986 1259 1692 1636 1641 1679 1707 1800
1823 1979 2304 1664 1647 1786 1837 1968 2174 2474 2571 2634 2553 2616 2573 2560 2567 2543 2409 2586 2890 2941 2826 2286 2492 2581 1687 1459 1453 1542 1674 1583 1581 1459 1319 1277 1436 1699 1685 1603 1506 1761 1578
1863 2097 1725 1597 1615 1749 1893 1965 2113 2169 2262 2419 2544 2674 2684 2702 2742 2578 2424 2721 3018 2962 2940 2855 2890 2294 1405 1264 1350 1503 1528 1439 1362 1510 1347 1394 1401 1767 1602 1742 1584 1511 1399
1977 2372 2538 1543 1639 1787 1983 2055 2044 1936 2024 2255 2497 2617 2704 2796 2754 2516 2451 2722 2921 2919 2920 2891 2616 1733 1334 1236 1401 1438 1374 1323 1571 1309 1310 1436 1498 2026 1613 1441 1490 1402 1576
2202 2563 2698 1763 1712 1816 1954 1976 1868 1747 1795 2049 2308 2475 2693 2700 2531 2443 2475 2581 2584 2658 2631 2574 2129 1538 1373 1311 1380 1272 1074 1252 1422 1211 1255 1321 1690 1817 1689 1552 1349 1232 1602
2550 2749 2929 2705 2198 1730 1861 1852 1758 1651 1665 1838 2058 2276 2475 2448 2316 2359 2502 2474 2445 2348 2357 2130 1853 1438 1404 1351 1230 993 885 1172 1553 1325 1255 1374 1666 1702 1624 1517 1398 1591 1570
2603 2900 3022 2963 2601 2744 2477 1609 1532 1560 1584 1757 1864 1998 2171 2220 2226 2171 2279 2327 2252 2209 2111 1947 1572 1359 1357 1254 1031 657 765 1004 1696 1277 1520 1337 1471 1522 1586 1465 1421 1597 1387
2261 2530 2614 2297 2341 2530 2842 2386 1531 1457 1481 1584 1781 1836 1920 2269 2603 2507 2184 2066 2087 1977 1788 1779 1390 1208 1245 1082 739 520 541 1505 1376 1408 1415 1026 1426 1387 1568 1245 1330 1396 1307
2242 2197 2106 1957 2149 2197 2193 2875 2658 2598 2326 2226 2178 2299 2311 2313 2493 2218 2092 1901 1929 1730 1519 1476 1269 1067 1111 1641 1525 658 1557 1216 1181 1310 1566 1070 1175 1449 1415 1184 1291 1297 1063
1966 2211 2215 2090 2052 2160 2003 2634 2617 2843 2665 2720 2730 2780 2495 2486 2655 2510 2590 2571 2605 1572 2088 1612 1715 1824 1634 1650 1840 1494 1427 1380 1721 1498 1393 455 772 1307 1259 1252 1089 1140 1106
1912 1883 2167 2194 2301 2210 1998 2524 2581 2622 2571 2236 2584 3008 2860 2745 2624 2538 2393 2506 2487 2397 2116 2109 1881 1813 1710 1700 1531 1546 1622 1480 1644 1366 873 145 87 445 1000 1138 1033 1262 944
0 442 1846 1956 2143 1987 1814 2201 2239 2209 2158 2273 2729 2786 2968 2637 2730 2528 2304 2289 2419 2210 2183 2187 1924 1915 1779 1770 1648 1668 1532 1452 1251 1442 1027 43 87 202 340 592 716 881 758
0 0 24 1719 1957 1892 1852 2107 2023 2116 2013 2207 2329 2343 3151 2680 2564 2363 2442 2430 2428 2321 2206 2115 2026 1967 1792 1606 1539 1592 1412 1357 1145 1228 1053 493 78 111 109 306 272 491 613
0 0 0 51 2156 2086 1887 1897 1919 1800 1919 1843 2086 2353 2542 2651 2548 2350 2250 2295 2375 2299 2352 2247 2098 1901 1772 1397 1462 1484 1303 1203 1189 1090 740 173 73 3 25 88 84 218 754
0 0 0 0 0 457 1860 2121 2125 1963 1951 1898 1891 2057 2485 2416 2371 2316 1830 1995 2073 2419 2341 2156 1891 1686 1793 1552 1442 1290 1181 1210 1101 1015 504 123 179 218 31 6 1 133 514
0 0 0 0 0 3 767 1670 2130 2343 2217 2089 2040 1953 1982 2117 1919 1872 1635 1807 1820 1708 1987 1913 1779 1753 1569 1325 1309 1237 1149 1035 927 710 155 63 129 198 224 50 0 65 221
0 0 0 0 0 0 16 1021 1445 1968 2240 2363 2219 2004 1828 1792 1655 1822 1750 1938 1482 1460 1726 1664 1433 1334 1347 1198 802 834 880 875 891 715 382 70 30 157 102 110 56 131 2
0 0 0 0 0 0 0 95 907 1652 1858 1781 2235 2183 1919 1815 1760 1671 1685 1689 1346 1347 1384 1352 1438 1074 1124 919 445 345 659 680 619 667 451 83 188 114 151 80 145 112 62
0 0 0 0 0 0 0 0 313 1039 1257 1457 1778 2136 2028 1681 1741 1615 1760 1565 1374 1369 1343 1132 995 664 808 963 379 138 153 187 503 619 481 304 193 171 210 109 47 78 57
0 0 0 0 0 0 1 0 0 770 1344 1329 1477 1844 1874 1998 1796 1600 1642 1703 1468 1498 1377 1205 876 733 472 403 675 158 8 46 17 205 405 283 397 256 223 248 107 48 48
0 0 0 0 0 0 0 3 2 203 1082 1410 1515 1515 1587 1694 2067 1762 1712 1744 1774 1391 1378 1403 902 1096 913 438 435 524 16 65 132 220 129 379 438 328 159 288 197 164 59
0 0 0 0 1 0 2 5 10 30 1116 1435 1439 1658 1653 1551 1702 1902 1946 1869 1778 1459 1239 1322 1117 1249 1379 1065 414 240 302 1 0 52 264 89 65 137 326 193 135 137 137
0 0 0 0 1 1 3 5 9 13 262 1667 1742 1846 1640 1674 1395 1572 1738 1876 1845 1347 1089 1232 1524 1472 1124 1147 959 746 500 37 3 1 52 77 165 88 60 60 50 61 11

GFSSE_con_sbcape_114.txt.gz
CAPE
2079 1577 1593 1895 2067 2177 2230 2122 1791 1864 2030 2090 2074 2106 2195 2307 2258 2250 2339 2270 2484 2767 2812 2725 2633 2267 1690 1627 1547 1673 1634 1629 1715 1833 1853 1854 1617 1703 1784 1856 1726 1196 1765
2407 1692 1483 1826 2022 2220 2289 2237 1965 1975 2157 2250 2225 2279 2353 2342 2320 2396 2504 2539 2542 2717 2684 2636 2408 2292 2056 2023 1950 1766 1508 1444 1574 1808 2031 1758 1598 1642 1599 1638 1631 1437 1695
2593 2025 1630 1710 1954 2188 2376 2378 2323 2215 2321 2385 2363 2403 2457 2399 2409 2474 2477 2434 2761 3003 2975 2496 2356 2300 2377 2370 2302 2003 1623 1555 1605 1861 2027 1253 1403 1742 1434 1319 1518 1501 1782
2624 1982 1907 1666 1903 2122 2282 2371 2423 2458 2489 2483 2499 2529 2557 2532 2556 2584 2466 2352 2570 3098 3054 2593 2574 2732 2675 2606 1991 1862 1629 1570 1529 1700 1550 1341 1092 1736 1610 1792 1567 1830 1904
2071 2682 2171 1654 1824 2059 2229 2362 2440 2517 2517 2466 2499 2676 2698 2638 2702 2711 2465 2445 2800 3094 3040 2406 2491 2807 2477 2010 1615 1678 1681 1422 1387 1481 1159 740 953 1619 1740 1798 1736 1671 1558
2098 2817 1156 1563 1730 1967 2246 2413 2543 2530 2379 2315 2430 2700 2805 2747 2810 2761 2451 2618 2954 3139 3055 2809 2800 2485 1745 1511 1465 1536 1598 1391 1174 1260 905 633 850 1872 1701 1734 1609 1597 1425
2412 2719 1844 1489 1629 1887 2271 2471 2506 2427 2307 2278 2394 2596 2743 2792 2803 2643 2417 2648 2960 3125 3114 3036 2793 2165 1419 1341 1382 1452 1432 1327 1213 799 506 0 1061 2028 1777 1867 1544 1530 1350
2976 3327 2026 1564 1588 1781 2023 2208 2274 2309 2329 2308 2361 2486 2678 2687 2648 2520 2397 2626 2725 2764 2844 2787 2601 2235 1423 1287 1350 1338 1317 1158 1143 968 0 104 590 2002 1766 1708 1487 1415 1447
3090 3763 2998 2116 1739 1584 1683 1832 1953 2124 2253 2313 2325 2377 2506 2507 2453 2347 2383 2570 2507 2605 2582 2504 2362 1929 1476 1296 1275 1221 1165 1171 1042 967 270 215 1151 2043 1777 1713 1466 1435 1525
3410 3926 3688 2783 2206 1997 1741 1399 1574 1834 2024 2203 2276 2304 2329 2336 2299 2201 2203 2405 2510 2389 2391 2305 2217 1753 1415 1255 1143 1075 983 1004 860 975 966 422 1181 1858 1789 1739 1668 1532 1404
3358 3766 3943 3166 2687 2504 2210 1658 1297 1478 1626 1909 2115 2164 2018 2455 2286 2151 2183 2097 2273 2183 2174 2203 2053 1712 1326 1207 1109 883 750 1095 1014 745 916 607 1019 1744 1966 1871 1409 1452 1220
3166 3335 3612 3351 3061 2991 2344 2108 1878 1707 1689 1844 2028 2132 2529 2594 2551 2345 2267 1934 1994 2009 1978 1885 1876 1561 1143 1273 1055 695 908 1143 1012 785 529 735 917 508 1899 1732 1370 1004 758
170 3027 3183 2638 2427 2515 2929 2612 2039 2041 1789 1834 1974 2184 2138 2288 2535 2195 2200 1864 2061 1671 1894 1500 1444 1521 1460 1323 1367 1181 1161 1080 1030 1055 438 727 994 1446 1983 1659 1293 1085 733
0 2645 3057 2562 2507 2307 2370 2914 2803 2453 2273 2206 2113 2360 2207 2108 2125 2383 2018 2179 2173 2026 2012 1983 1816 1739 1636 1641 1502 1554 1253 1092 1116 976 198 300 685 1506 1795 1413 1226 813 819
0 1168 2214 2255 2569 2329 2472 2605 2806 2546 2611 2636 2495 2638 2518 2239 2398 2403 2083 2229 2305 2130 2100 1944 1916 1882 1857 1762 1708 1444 1345 1318 1227 1116 1091 226 228 695 1585 1282 985 854 750
0 0 563 1745 1971 2590 2651 2638 2504 2955 2776 2510 2497 2765 2748 2547 2015 2405 2189 2240 2403 2293 2136 1972 1770 1541 1842 1774 1573 1602 1378 1371 1201 1274 1190 172 151 202 665 1246 916 513 416
0 0 0 0 0 413 1931 2058 1998 2468 2455 2654 2534 2427 2484 2752 2354 2299 2471 1986 1860 2292 2111 2043 2175 2041 1946 1778 1583 1519 1426 1371 1229 1128 966 356 0 67 151 254 600 570 170
0 0 0 0 0 0 0 1867 2280 2009 2234 1961 2297 2365 2243 2655 2278 2722 2223 2294 2431 1813 2324 2233 2143 1745 1857 1901 1649 1643 1564 1294 1149 1036 975 663 82 34 13 76 202 239 145
0 0 0 0 0 0 0 0 62 1519 2270 1897 1726 2169 2164 2063 2654 2327 2445 2216 2156 2453 2094 2303 2002 1819 1855 1682 1676 1614 1410 1185 1057 1029 863 693 230 104 93 1 9 14 19
0 0 0 0 0 0 0 13 0 0 1259 2082 2186 1924 2131 2213 2211 2409 2348 2398 2025 2068 2139 2158 1976 2056 1842 1661 1746 1386 1334 1149 1004 970 852 702 400 134 143 71 0 0 0
0 0 0 0 0 0 0 0 0 0 15 1122 1804 2201 2426 2355 2401 2287 2250 2463 2077 1854 1827 1843 2065 1911 1890 1879 1530 1320 1206 1154 1090 871 736 549 382 193 172 122 5 3 0
0 0 0 0 0 0 0 0 0 0 0 10 8 336 1876 2430 2377 2496 2433 2413 2313 1927 1611 1803 2140 1840 1655 1736 1428 963 768 851 847 799 636 564 370 180 145 14 15 2 15
0 0 0 0 0 0 0 0 0 0 0 1 1 2 1252 1664 2544 2014 2241 2277 2078 1869 1569 1460 1929 1533 1378 1339 1369 653 379 301 436 566 582 449 296 269 161 22 3 0 6
0 0 0 0 0 0 0 0 0 0 0 0 0 0 36 794 1118 2136 1946 2211 1982 2038 1548 1289 1577 1556 1310 1145 1390 860 553 380 244 418 426 458 348 287 244 169 40 6 0
0 0 0 0 0 0 0 0 0 0 0 0 0 0 0 12 463 1752 1975 2090 2008 2092 1782 1281 1281 1516 1234 1057 1018 1049 819 655 493 399 442 349 509 386 242 235 142 39 2
0 0 0 0 0 0 0 0 2 5 2 5 2 0 0 0 32 1153 1725 1921 1861 1775 1874 1589 1493 1452 1244 1253 866 752 862 675 513 350 262 242 190 231 295 273 106 169 74

GFSSE_con_sbcape_117.txt.gz
CAPE
1497 1591 1806 2058 2165 1998 1808 1682 1731 1836 1957 2018 2008 2112 2190 2130 2020 2084 2197 2386 2573 2849 2734 2390 2543 2247 1921 1764 1860 1493 1455 1565 1574 1825 1866 1860 1845 1748 1868 1886 1555 1330 1802
1506 1570 1721 1942 2138 2221 1966 1715 1748 1943 2121 2184 2192 2252 2222 2133 2097 2153 2133 2319 2679 2861 2504 2440 2323 2073 1843 1911 1763 1435 1477 1558 1680 1735 1720 1884 1824 1735 1594 1716 1588 1561 1769
1563 1560 1678 1818 2083 2224 2281 1969 1967 2167 2288 2291 2305 2310 2255 2238 2258 2235 2194 2222 2555 2779 2546 2357 2282 2146 2233 1997 2016 1722 1451 1535 1623 1556 1874 1374 1620 1841 1523 1126 1667 1525 1812
1687 1396 1583 1732 1981 2161 2209 2192 2039 2309 2414 2381 2407 2401 2296 2301 2333 2361 2233 2330 2658 2987 2805 2231 2275 2444 2385 2438 2022 1869 1548 1537 1448 1577 1676 1334 1247 1859 1657 1886 1794 1823 1959
1824 1542 1667 1662 1871 2089 2163 2234 2117 2238 2287 2327 2381 2502 2420 2441 2477 2446 2192 2178 2513 3149 3050 2592 2562 2561 2371 2125 1605 1661 1550 1435 1430 1434 831 498 778 1809 1786 2078 1997 1888 1536
2041 1851 1427 1598 1753 2020 2170 2240 2235 2190 2131 2148 2268 2510 2524 2591 2608 2407 2104 2250 2773 3075 3041 2730 2661 2443 1998 1560 1425 1472 1571 1471 1272 586 398 309 471 1492 1596 1874 1803 1736 1486
2286 1649 1332 1529 1690 1975 2222 2294 2294 2212 2061 2049 2227 2397 2413 2558 2591 2296 2069 2277 2699 2856 2847 2664 2560 2005 1349 1236 1306 1381 1432 1486 1220 237 190 119 104 488 1552 1568 1793 1720 1363
2125 1729 1413 1524 1659 1925 2190 2282 2278 2174 2017 1993 2167 2326 2389 2364 2344 2190 2098 2199 2540 2692 2441 2562 2400 2024 1229 1144 1232 1274 1318 1318 1181 170 61 5 1 499 1615 1346 1629 1526 1268
2646 1724 1496 1596 1674 1750 1998 2103 2081 2069 2015 1997 2088 2259 2373 2271 2209 2125 2119 2188 2471 2500 2435 2444 2339 2036 1461 1143 1167 1185 1162 1239 916 71 472 5 42 577 1482 1765 1616 1529 1443
2732 2300 1563 1391 1409 1363 1442 1709 1854 1978 2019 2031 2062 2117 2231 2197 2172 2107 2057 2185 2404 2381 2321 2231 2164 1839 1389 1147 1088 1080 1036 1017 823 647 563 202 191 1008 1888 1938 1692 1502 1358
2534 2896 2156 1627 1441 1323 1174 1259 1461 1740 1841 1966 2010 1985 1800 1947 2050 1986 1897 2018 2275 2187 2162 2087 2056 1706 1273 1124 1053 973 859 800 793 479 346 787 1234 1577 1829 1792 1572 1387 1399
2632 2697 2505 1985 1764 1593 1666 1196 1039 1294 1363 1536 1799 1678 1707 1839 1804 2000 1843 1845 2001 1962 1944 2006 1875 1690 1211 920 876 947 725 844 743 448 583 730 1338 1552 1755 1877 1479 1344 1208
1436 2620 2759 2511 2222 1968 1851 1184 1155 1081 1047 1262 1619 1650 1837 1957 1824 1640 1653 1563 1434 1588 1503 1528 1409 1187 1041 892 809 732 703 874 614 542 594 649 1003 1306 1192 1864 1707 1480 1233
0 2831 2519 2277 2249 2423 2328 1620 1286 1349 1056 1102 1218 1568 1687 1600 1721 1824 1672 1488 1423 1445 1401 1249 1207 1196 1072 970 861 955 887 838 395 498 386 306 323 1318 1932 1738 1801 1653 1121
0 2437 2308 2145 2087 2030 2019 2079 2009 1500 1399 1376 1358 1509 1553 1300 1483 1448 1416 1563 1554 1457 1412 1242 1237 1266 1232 1070 1079 1123 1054 911 717 545 78 213 496 1063 1978 1879 1459 1348 1018
0 48 0 1505 2091 1859 1409 1661 1588 1665 1905 1748 1739 1765 1859 1639 1339 1453 1449 1453 1599 1528 1483 1330 1240 1268 1340 1132 1226 1259 1017 1009 901 705 176 18 169 414 1115 2032 1835 1479 1091
0 0 0 0 0 0 432 964 1061 881 1545 1769 1486 1864 2163 1964 1586 1350 1467 1305 1567 1755 1471 1483 1133 859 1023 1121 1184 1022 962 909 941 843 449 7 7 77 241 984 1348 1440 1318
0 0 0 0 0 0 0 0 422 895 987 1198 1418 1754 1880 2189 1815 1546 1338 1390 1052 1689 1616 1562 1403 1213 1018 1085 1015 919 907 863 871 810 414 130 0 0 63 335 455 652 518
0 0 0 0 0 0 0 0 0 0 0 492 1072 1621 1589 1458 1931 1868 1544 1393 1451 1244 1592 1621 1333 1157 920 1015 984 947 883 864 757 745 625 237 0 0 0 0 104 198 128
0 0 0 0 0 0 0 0 0 0 0 0 488 786 1333 1470 1359 1857 1724 1649 1257 1337 1421 1474 1543 1096 1055 988 1198 1027 792 655 569 601 511 359 25 0 0 0 0 0 10
0 0 0 0 0 0 0 0 0 0 0 0 0 0 4 1148 1318 1370 1488 1381 1324 1406 1354 1124 1005 1365 1079 856 915 532 505 402 485 437 367 381 200 0 0 0 0 0 0
0 0 0 0 0 0 0 0 0 0 0 0 0 0 0 0 325 1175 1453 1439 1625 1257 800 1050 1076 816 1049 964 764 435 628 316 447 414 313 257 241 58 5 0 0 0 0
0 0 0 0 0 0 0 0 0 0 0 0 0 0 0 0 0 255 1257 1328 1355 1302 879 863 884 1113 1244 854 740 524 237 332 100 171 334 281 155 58 16 0 0 0 0
0 0 0 0 0 0 0 0 0 0 0 0 0 0 0 0 0 0 2 813 1285 1157 1006 815 950 1196 1019 1016 637 345 74 41 43 70 106 272 124 146 23 0 0 0 0
0 0 0 0 0 0 0 0 0 0 0 0 0 0 0 0 0 0 0 0 767 922 869 813 688 1266 894 853 891 1021 464 141 71 73 145 273 159 130 105 22 0 0 0
0 0 0 0 0 0 0 0 0 0 0 0 0 0 0 0 0 0 0 0 0 920 1141 832 748 842 1301 1228 716 580 784 693 449 129 60 107 300 135 199 90 41 14 0

GFSSE_con_sbcape_123.txt.gz
CAPE
1353 1455 1719 1860 1908 1854 1702 1654 1560 1680 2022 2156 2226 2370 2517 2579 2532 2482 2547 2656 2766 2882 2887 2521 2194 2039 1713 1202 1362 1564 1562 1655 1571 2054 1901 1950 1798 1765 1585 1831 1815 1426 1720
1383 1699 1731 1860 1933 1958 1844 1768 1736 1801 2115 2222 2248 2323 2372 2433 2478 2552 2636 2756 2936 3033 2728 2515 2299 2123 1644 1398 1331 1352 1458 1488 1575 1571 1844 1719 1819 1695 1706 1799 1678 1563 1957
1443 1775 1756 1833 1956 2005 1994 1967 2000 2078 2182 2250 2223 2258 2343 2427 2493 2536 2594 2713 2865 2964 2620 2373 2184 2123 1966 1777 1283 1264 1367 1415 1478 1452 1787 1267 1352 1672 1668 1694 1840 1874 1947
1527 1699 1843 1799 1901 1960 1934 1993 2098 2314 2296 2281 2192 2191 2335 2421 2475 2535 2550 2649 2846 2929 2566 2243 2100 2057 2183 1784 1460 1286 1343 1322 1333 1350 1160 1061 1194 1640 1278 1447 1744 1807 1900
1467 1623 1759 1879 1880 1875 1827 1925 2068 2250 2213 2234 2166 2227 2273 2401 2490 2482 2361 2570 2911 3024 2541 2252 2105 2477 1987 1626 1475 1292 1301 1212 1203 922 749 661 728 1113 992 1770 1971 2021 1918
1409 1482 1599 1803 1933 1919 1835 1870 2012 2106 1996 2036 2100 2224 2299 2374 2396 2244 2077 2485 2907 2969 2711 2681 2919 2252 1770 1358 1257 1249 1196 1096 674 394 352 622 246 657 1336 1871 1741 1691 1667
1263 1306 1349 1560 1802 1995 2033 1931 1906 1955 1851 1898 2046 2079 2222 2418 2435 2134 2061 2479 2924 3023 3045 2830 2457 1934 1550 1294 1138 1179 1120 1038 485 219 211 524 236 962 1346 1875 1487 1593 1701
1305 1303 1321 1387 1698 1914 2066 1919 1756 1791 1762 1812 1913 1921 2109 2149 2136 1998 1983 2119 2550 2856 2522 2292 2057 1764 1341 1117 1062 997 1036 1069 400 114 73 136 436 1113 1185 1910 1585 1692 1688
1463 1262 1228 1391 1655 1826 1944 1962 1759 1699 1663 1729 1824 1860 1914 1830 1763 1794 1851 1907 2336 2426 2149 2108 1913 1378 1084 1012 930 875 893 1075 365 145 5 0 60 1127 1505 2100 1818 1564 1605
1457 1283 1160 1202 1407 1499 1574 1716 1760 1682 1612 1629 1728 1786 1738 1689 1671 1618 1621 1760 2134 2236 2113 2039 1937 1546 1094 871 808 789 855 830 415 165 27 101 285 1248 1721 2196 2008 1783 1639
1815 1361 1094 1147 1194 1241 1297 1432 1547 1678 1642 1521 1554 1606 1524 1478 1514 1562 1512 1628 1901 2155 2029 2008 1926 1715 1365 895 729 661 738 449 314 272 103 240 396 1349 1724 2082 2031 1774 1707
2399 1859 1240 1130 1164 1045 1323 1424 1406 1485 1539 1391 1388 1419 1529 1470 1452 1636 1582 1507 1720 1841 1942 1913 1794 1642 1238 611 490 520 404 398 250 301 224 251 712 992 1333 1960 1968 1834 1673
1889 2264 1809 1265 1046 1066 1240 1062 1124 1354 1297 1436 1676 1641 1583 1385 1490 1538 1465 1335 1371 1440 1547 1534 1399 1219 965 528 356 302 239 285 219 183 264 258 654 1241 1760 2130 2079 1914 1670
0 0 856 1555 1281 1002 1044 937 935 1023 959 1108 1281 1403 1363 1255 1233 1401 1449 1267 1147 1326 1519 1415 1370 1321 995 603 366 265 261 252 224 116 48 336 451 1555 1937 2147 2241 2047 1795
0 758 1398 1712 1575 1216 1206 994 721 932 968 984 1091 1252 1258 1250 1247 1329 1344 1151 1012 990 1176 1307 1351 1137 1021 758 506 279 277 270 242 132 54 164 490 1066 1640 1647 1806 1857 1771
0 0 0 11 733 1522 1285 1181 1006 840 845 691 851 951 1178 1363 1315 1307 1423 1107 1010 831 939 1005 1191 1096 1033 861 684 391 371 377 268 178 87 53 74 61 392 906 1959 2066 1834
0 0 0 0 0 0 0 0 0 140 597 631 719 1102 923 1138 1133 1140 1195 1281 1214 1037 878 910 824 880 905 725 678 470 441 392 326 197 115 55 36 0 0 519 1247 1792 1877
0 0 0 0 0 0 0 0 0 0 0 0 1 23 170 761 1156 907 814 986 1197 915 913 974 1056 1000 900 722 693 456 475 408 333 243 136 65 20 0 0 75 640 921 1507
0 0 0 0 0 0 0 0 0 0 0 0 0 0 0 2 22 37 26 539 450 547 777 867 917 894 882 763 660 566 304 356 367 341 222 93 18 4 0 0 0 348 786
0 0 0 0 0 0 0 0 0 0 0 0 0 0 0 0 0 4 0 0 5 276 352 539 925 754 824 719 511 465 249 300 310 343 303 145 47 2 0 0 0 0 214
0 0 0 0 0 0 0 0 0 0 0 0 0 0 0 0 0 0 1 1 35 113 46 408 808 789 522 142 166 101 78 86 175 299 291 167 61 5 0 0 0 0 0
0 0 0 0 0 0 0 0 0 0 0 0 0 0 0 0 0 0 0 0 10 1 154 151 619 665 458 119 340 34 254 178 92 126 212 201 141 68 2 0 0 0 0
0 0 0 0 0 0 0 0 0 0 0 0 0 0 0 0 0 0 0 0 0 1 4 27 321 285 346 200 262 120 80 141 54 48 140 200 128 97 43 9 0 0 0
0 0 0 0 0 0 0 0 0 0 0 0 0 0 0 0 0 0 0 0 0 0 0 0 0 204 21 10 132 74 101 0 24 11 48 174 128 135 142 47 21 1 0
0 0 0 0 0 0 0 0 0 0 0 0 0 0 0 0 0 0 0 0 1 2 2 4 0 0 267 58 88 24 37 3 30 0 3 48 132 173 112 104 70 33 1
0 0 0 0 0 0 0 0 0 0 0 0 0 0 0 0 0 0 0 0 1 2 2 3 4 1 41 305 101 33 8 15 8 14 0 0 61 149 176 41 22 23 1